FW1788 Weather Reports


Display with metric or nautical units.
time (UTC)temp
F
wind
direction
speed
MPH
gust
MPH
rain 1hr
in
rain 24hr
in
rain mn
in
humidity
%
barometer
mb
20260508153039 59 194 1.0 6.0 0.00 1.01 0.00 66 1001.1
20260508151536 59 237 2.0 5.0 0.00 1.01 0.00 67 1001.2
20260508150034 58 189 3.0 7.0 0.00 1.01 0.00 64 1001.2
20260508144532 57 252 1.0 7.0 0.00 1.01 0.00 68 1001.4
20260508143036 58 103 2.0 11.0 0.00 1.01 0.00 67 1001.6
20260508141544 58 19 0.0 4.0 0.00 1.01 0.00 68 1001.7
20260508140027 57 36 3.0 5.0 0.00 1.01 0.00 71 1001.8
20260508134524 57 207 2.0 5.0 0.00 1.01 0.00 69 1002.0
20260508133022 56 75 0.0 6.0 0.00 1.01 0.00 67 1002.3
20260508131517 56 288 0.0 2.0 0.00 1.01 0.00 75 1002.3
20260508130012 55 319 0.0 4.0 0.00 1.01 0.00 77 1002.4
20260508124507 54 87 0.0 2.0 0.00 1.01 0.00 81 1002.6
20260508123006 53 313 0.0 3.0 0.00 1.01 0.00 84 1002.1
20260508121611 52 5 0.0 3.0 0.00 1.01 0.00 87 1001.9
20260508120100 51 348 0.0 0.0 0.00 1.01 0.00 90 1002.2
20260508114550 49 15 0.0 0.0 0.00 1.02 0.00 96 1002.4
20260508113055 48 22 0.0 0.0 0.00 1.02 0.00 98 1002.5
20260508111556 47 23 0.0 1.0 0.00 1.02 0.00 98 1002.3
20260508110057 45 18 0.0 2.0 0.00 1.02 0.00 98 1002.3
20260508104544 44 5 0.0 2.0 0.00 1.05 0.00 99 1002.8
20260508103142 43 24 0.0 1.0 0.00 1.05 0.00 98 1002.7
20260508101543 42 24 0.0 0.0 0.00 1.05 0.00 99 1002.6
20260508100038 42 24 0.0 0.0 0.00 1.06 0.00 98 1002.7
20260508094549 41 24 0.0 0.0 0.00 1.06 0.00 98 1002.4
20260508093034 41 24 0.0 0.0 0.00 1.06 0.00 98 1002.2
20260508091529 41 24 0.0 0.0 0.00 1.06 0.00 98 1002.0
20260508090032 41 24 0.0 2.0 0.00 1.06 0.00 98 1002.1
20260508084524 42 24 0.0 1.0 0.00 1.06 0.00 98 1002.1
20260508083022 42 24 0.0 0.0 0.00 1.06 0.00 98 1002.0
20260508081519 43 24 0.0 0.0 0.00 1.06 0.00 98 1001.6
20260508080021 44 24 0.0 0.0 0.00 1.06 0.00 98 1001.5
20260508074515 44 24 0.0 0.0 0.00 1.06 0.00 98 1001.5
20260508073021 44 24 0.0 1.0 0.00 1.06 0.00 98 1001.6
20260508071514 45 42 0.0 1.0 0.00 1.06 0.00 98 1001.6
20260508070010 45 44 0.0 2.0 0.00 1.06 0.00 98 1001.6
20260508064508 45 46 0.0 1.0 0.00 1.06 0.00 98 1001.8
20260508063009 45 46 0.0 3.0 0.00 1.06 0.00 98 1001.7
20260508061514 45 12 0.0 1.0 0.00 1.06 0.00 98 1001.8
20260508060006 46 12 0.0 0.0 0.00 1.06 0.00 98 1001.9
20260508054504 46 12 0.0 0.0 0.00 1.06 0.00 98 1001.8
20260508053007 46 12 0.0 0.0 0.00 1.06 0.00 98 1001.8
20260508051603 46 12 0.0 0.0 0.00 1.06 0.00 98 1001.9
20260508050100 46 12 0.0 0.0 0.00 1.06 0.00 98 1001.8
20260508044602 46 12 0.0 1.0 0.00 1.06 0.00 98 1001.8
20260508043102 47 12 0.0 0.0 0.00 1.06 0.00 98 1001.6
20260508041558 47 12 0.0 0.0 0.00 1.06 0.00 98 1001.8
20260508040053 47 12 0.0 0.0 0.00 1.06 0.00 98 1001.8
20260508034556 48 12 0.0 0.0 0.00 1.06 0.00 98 1001.8
20260508033050 48 12 0.0 0.0 0.00 1.06 0.00 98 1002.1
20260508031548 48 12 0.0 0.0 0.00 1.06 0.00 98 1002.2
20260508030147 49 12 0.0 0.0 0.00 1.06 0.00 98 1002.4
20260508024549 49 12 0.0 0.0 0.00 1.06 1.06 98 1002.3
20260508023049 49 12 0.0 4.0 0.00 1.06 1.06 98 1002.4
20260508021547 49 331 0.0 3.0 0.00 1.06 1.06 98 1002.6
20260508020044 49 328 0.0 1.0 0.00 1.06 1.06 98 1002.4
20260508014551 49 327 0.0 4.0 0.00 1.06 1.06 99 1002.3
20260508013046 49 323 0.0 2.0 0.00 1.06 1.06 98 1002.4
20260508011545 49 323 0.0 0.0 0.01 1.06 1.06 98 1002.1
20260508010043 49 323 0.0 4.0 0.01 1.06 1.06 98 1001.8
20260508004541 49 157 0.0 0.0 0.02 1.06 1.06 98 1002.1
20260508003055 49 157 0.0 0.0 0.02 1.06 1.06 98 1002.4
20260508001542 49 157 0.0 0.0 0.01 1.05 1.05 98 1002.5
20260508000043 49 157 0.0 0.0 0.01 1.05 1.05 98 1002.4
20260507234539 49 157 0.0 0.0 0.00 1.04 1.04 98 1002.6
20260507233038 49 157 0.0 1.0 0.00 1.04 1.04 98 1002.5
20260507231540 49 135 0.0 0.0 0.00 1.04 1.04 98 1002.5
20260507230040 49 135 0.0 0.0 0.00 1.04 1.04 98 1002.3
20260507224547 49 135 0.0 0.0 0.00 1.04 1.04 98 1002.4
20260507223034 49 115 0.0 2.0 0.00 1.04 1.04 98 1002.4
20260507221533 50 123 0.0 2.0 0.00 1.04 1.04 98 1002.5
20260507220031 50 92 0.0 1.0 0.00 1.04 1.04 98 1002.7
20260507214530 50 104 0.0 0.0 0.00 1.04 1.04 98 1002.8
20260507213030 50 84 0.0 2.0 0.00 1.04 1.04 98 1003.0
20260507211528 50 116 0.0 0.0 0.02 1.04 1.04 98 1002.6
20260507210031 50 215 0.0 1.0 0.02 1.04 1.04 98 1002.8
20260507204527 50 206 0.0 3.0 0.06 1.04 1.04 98 1002.3
20260507203025 50 241 0.0 3.0 0.12 1.04 1.04 98 1002.5
20260507201527 50 202 0.0 2.0 0.19 1.02 1.02 98 1002.7
20260507200022 50 240 0.0 1.0 0.26 1.02 1.02 98 1003.3
20260507194524 50 111 0.0 3.0 0.28 0.98 0.98 98 1002.9
20260507193020 50 149 0.0 2.0 0.32 0.92 0.92 98 1004.0
20260507191519 51 121 0.0 0.0 0.33 0.83 0.83 98 1004.6
20260507190020 51 136 0.0 0.0 0.33 0.76 0.76 98 1004.6
20260507184519 50 136 0.0 0.0 0.45 0.69 0.69 98 1004.5
20260507183015 50 136 0.0 1.0 0.46 0.60 0.60 98 1004.8
20260507181514 49 157 0.0 2.0 0.41 0.50 0.50 98 1005.1
20260507180015 49 109 0.0 2.0 0.35 0.42 0.42 97 1005.4
20260507174512 50 118 0.0 7.0 0.18 0.24 0.24 97 1005.5
20260507173011 50 208 0.0 5.0 0.08 0.13 0.13 97 1004.7
20260507171510 50 122 2.0 7.0 0.04 0.09 0.09 97 1004.9
20260507170008 50 186 1.0 7.0 0.02 0.06 0.06 97 1005.2
20260507164506 50 194 0.0 4.0 0.01 0.06 0.06 97 1005.5
20260507163002 50 201 0.0 4.0 0.01 0.06 0.06 97 1006.2
20260507161603 50 155 0.0 4.0 0.01 0.06 0.06 97 1006.6
20260507160108 50 139 0.0 5.0 0.00 0.05 0.05 97 1007.2
20260507154556 50 271 0.0 4.0 0.00 0.05 0.05 96 1007.3